Home   Weather   Rafsanjan   Past weeks

Flag for Iran Past Weather in Rafsanjan, Iran — Yesterday and Last 2 Weeks

Now
32 °F

Clear.


Feels Like: 32 °F
Forecast: 27 / 56 °F
Wind: No wind

Location: Kerman Airport

Current Time: Jan 17, 2017 at 1:27:51 am

Latest Report: Jan 17, 2017 at 12:30 am


Visibility: 10 mi

Pressure: 30.18 "Hg (24.97 "Hg at 1515m altitude)

Humidity: 75%

Dew Point: 25 °F

Location of RafsanjanLocation

Past Weather in Rafsanjan — Graph

°F

Rafsanjan Temperature Yesterday

Maximum temperature yesterday: 57 °F (at 1:30 pm)
Minimum temperature yesterday: 34 °F (at 11:30 pm)
Average temperature yesterday: 45 °F

High & Low Weather Summary for the Past Weeks

 TemperatureHumidityPressure
High72 °F (Jan 2, 1:30 pm)74% (Jan 15, 2:30 am)30.30 "Hg (Jan 15, 2:30 am)
Low14 °F (Jan 7, 6:30 am)3% (Jan 8, 5:30 pm)29.77 "Hg (Jan 13, 1:30 pm)
Average45 °F21%30.09 "Hg
* Reported Jan 1 11:30 pm — Jan 16 11:30 pm, Rafsanjan, Weather by CustomWeather, © 2017

Note: Actual official high and low records may vary slightly from our data, if they occured in-between our weather recording intervals... More about our weather records

Advertising

Rafsanjan Weather History for the Previous 24 Hours

Scroll right to see more
 ConditionsComfort  
Time TempWeatherWind HumidityBarometerVisibility
11:30 pm
Mon, Jan 16
34 °FClear.7 mph65%30.18 "Hg10 mi
10:30 pm37 °FClear.5 mph56%30.18 "Hg10 mi
9:30 pm39 °FClear.5 mph48%30.18 "Hg10 mi
8:30 pm41 °FClear.5 mph49%30.15 "Hg10 mi
7:30 pm43 °FClear.7 mph46%30.15 "Hg10 mi
6:30 pm45 °FPassing clouds.12 mph39%30.12 "HgN/A
5:30 pm46 °FPassing clouds.14 mph37%30.09 "HgN/A
4:30 pm52 °FPassing clouds.18 mph30%30.04 "HgN/A
3:30 pm54 °FPassing clouds.20 mph26%30.04 "HgN/A
2:30 pm57 °FPassing clouds.14 mph18%30.04 "HgN/A
1:30 pm57 °FPassing clouds.20 mph20%30.04 "HgN/A
12:30 pm55 °FPassing clouds.18 mph23%30.04 "HgN/A
11:30 am54 °FScattered clouds.18 mph24%30.04 "HgN/A
10:30 am52 °FScattered clouds.7 mph30%30.09 "HgN/A
9:30 am50 °FScattered clouds.5 mph32%30.09 "HgN/A
8:30 am45 °FSunny.5 mph37%30.09 "Hg10 mi
7:30 am45 °FBroken clouds.5 mph34%30.09 "HgN/A
6:30 am41 °FPassing clouds.9 mph36%30.09 "HgN/A
5:30 am39 °FPassing clouds.5 mph39%30.04 "HgN/A
4:30 am39 °FClear.7 mph39%30.04 "Hg10 mi
3:30 am39 °FClear.5 mph42%30.04 "Hg10 mi
2:30 am37 °FClear.No wind41%30.04 "Hg10 mi
1:30 am37 °FClear.No wind41%30.07 "Hg10 mi
Weather by CustomWeather, © 2017

See weather overviewHow to use our weather pages